COSMOS 2251 DEB, 39554

Orbit data source: Space-Track

COSMOS 2251 DEB, 39554 is space debris in LEO originally from a launch on Wed, 16 Jun 1993 UTC launched from the Plesetsk Missile And Space Complex (PKMTR). The debris from Iridium 33, an American commercial communications satellite, has been tracked extensively since its accidental collision with the defunct Russian satellite Cosmos 2251 in 2009. This event, occurring at high speed in low Earth orbit (LEO), generated thousands of pieces of space debris, significantly increasing the risk of further collisions. The Iridium 33 debris cloud has impacted space traffic management and orbital debris mitigation strategies, making it a subject of ongoing study in space situational awareness.

Loading next visibility...
Identifier
39554, 1993-036BUL
Orbit
LEO
Country
Flag of CISCIS
Related business
Manufacturer
Unknown
Mission
Spacecraft
Bus & Motor
Unknown
Mass
Unknown
Launch date (UTC)
1993-06-16 (33 years ago)
Launch vehicle
Unknown
Launch site
Plesetsk Missile And Space Complex (PKMTR)
Object type
Payload
Rocket body
Debris
Shape & HBR
Unknown shape, 0.1 m
Radar Cross Section
Small (<0.1 m²)

Expand to show TLE details & history
Last TLE update: 1 day ago

TLE from 1 day ago
0 COSMOS 2251 DEB
1 39554U 93036BUL 26119.33801345  .00085161  00000-0  29416-2 0  9998
2 39554  74.0076 335.8780 0011897 135.1807 225.0358 15.29466645664758
Epoch: 2026-04-29T08:06Z
TLE epoch observation values (Epoch: 2026-04-29T08:06:44.362Z)
Latitude
-0.00003°
Longitude
-3.10726°
Altitude
485.897 km
Speed
7.619 km/s
True Right ascension
22h 23m 30s
True Declination
0° 00' 00"
Sunlit
Object was in daylight at epoch
Visualization orbit readout
Latitude
Unknown
Longitude
Unknown
Altitude
Unknown
Speed
Unknown
Apparent Right ascension
Unknown
Apparent Declination
Unknown
Sunlit
N/A
Visualization observer readout
Local Sidereal Time
19:44:34
Azimuth
Unknown
Elevation
Unknown
Doppler factor
Unknown
Orbital elements
Apogee altitude
483.083 km
Perigee altitude
466.777 km
Semi-major axis
6,853.067 km
Eccentricity
0.00119
Inclination
74.0076°
RAAN
335.878°
Arg. of periapsis
135.1807°
True anomaly
224.93944°
Mean anomaly
225.0358°
Eccentric anomaly
224.98761°
Mean motion
3.82574 °/min
Orbital period
94.1 mins
BSTAR
0.0029416
Loading maneuver chart data...
Computing Atmospheric mass density...

Documentation

Showing up to 5 results
|